This is the latest recevied weather packets stored in our database for station/object KC1OEK-13. If no packets are shown the sender has not sent any weather packets the latest 10 day(s).
| Time | Temp. | Humidity | Pressure | Rain* | Wind** | Luminosity | Snow |
|---|---|---|---|---|---|---|---|
| 1787419489 | 20.56° C | 84% | 1019.9 hPa | 0 mm | - | 116 W/m² | - |
| 1787419184 | 20.56° C | 85% | 1020 hPa | 0 mm | - | 68 W/m² | - |
| 1787418880 | 20.56° C | 83% | 1019.8 hPa | 0 mm | - | 120 W/m² | - |
| 1787418576 | 20.56° C | 83% | 1020 hPa | 0 mm | - | 104 W/m² | - |
| 1787418272 | 20.56° C | 83% | 1019.9 hPa | 0 mm | - | 113 W/m² | - |
| 1787417967 | 21.11° C | 83% | 1019.8 hPa | 0 mm | - | 133 W/m² | - |
| 1787417663 | 20.56° C | 82% | 1020.1 hPa | 0 mm | - | 144 W/m² | - |
| 1787417362 | 20.56° C | 83% | 1020.2 hPa | 0 mm | - | 131 W/m² | - |
| 1787417058 | 20.56° C | 82% | 1019.9 hPa | 0 mm | - | 131 W/m² | - |
| 1787416755 | 20.56° C | 82% | 1020.1 hPa | 0 mm | - | 139 W/m² | - |
| 1787416450 | 21.11° C | 80% | 1020.1 hPa | 0 mm | - | 135 W/m² | - |
| 1787416144 | 20.56° C | 82% | 1020.1 hPa | 0 mm | - | 100 W/m² | - |
| 1787415840 | 20.56° C | 83% | 1020.2 hPa | 0 mm | - | 103 W/m² | - |
| 1787415539 | 20.56° C | 81% | 1020.2 hPa | 0 mm | - | 112 W/m² | - |
| 1787415235 | 20.56° C | 80% | 1020.1 hPa | 0 mm | - | 91 W/m² | - |
| 1787414930 | 20.56° C | 80% | 1020.1 hPa | 0 mm | - | 89 W/m² | - |
| 1787414625 | 20.56° C | 79% | 1020.1 hPa | 0 mm | - | 87 W/m² | - |
| 1787414324 | 20.56° C | 81% | 1020.1 hPa | 0 mm | - | 139 W/m² | - |
| 1787414019 | 20.56° C | 80% | 1020 hPa | 0 mm | - | 131 W/m² | - |
| 1787413718 | 20.56° C | 80% | 1020.1 hPa | 0 mm | - | 123 W/m² | - |
| 1787413413 | 20.56° C | 80% | 1020.1 hPa | 0 mm | - | 111 W/m² | - |
| 1787413110 | 20.56° C | 79% | 1020.2 hPa | 0 mm | - | 115 W/m² | - |
| 1787412806 | 20.56° C | 81% | 1020.1 hPa | 0 mm | - | 116 W/m² | - |
| 1787412504 | 20.56° C | 82% | 1020.3 hPa | 0 mm | - | 111 W/m² | - |
| 1787412200 | 20.56° C | 80% | 1020.1 hPa | 0 mm | - | 118 W/m² | - |
* Rain latest hour (hover to see other rain measurements)
** Current wind speed in m/s (hover to see current wind gust speed)